| time (UTC) | temp C | wind direction | speed KPH | gust KPH | rain 1hr cm | rain 24hr cm | rain mn cm | humidity % | barometer mb |
| 20260504220209 | 17 | 30 | 8.0 | 0.0 | 0.00 | 0.00 | 0.00 | 55 | 1011.0 |
| 20260504213103 | 17 | 60 | 8.0 | 0.0 | 0.00 | 0.00 | 0.00 | 52 | 1011.0 |
| 20260504211851 | 17 | 40 | 3.2 | 0.0 | 0.00 | 0.00 | 0.00 | 52 | |
| 20260504203103 | 17 | 60 | 3.2 | 0.0 | 0.00 | 0.00 | 0.00 | 52 | 1011.0 |
| 20260504201850 | 17 | 60 | 3.2 | 0.0 | 0.00 | 0.00 | 0.00 | 48 | |
| 20260504193102 | 18 | 70 | 8.0 | 0.0 | 0.00 | 0.00 | 0.00 | 48 | 1011.0 |
| 20260504191853 | 18 | 60 | 8.0 | 0.0 | 0.00 | 0.00 | 0.00 | 48 | |
| 20260504190212 | 20 | 50 | 4.8 | 0.0 | 0.00 | 0.00 | 0.00 | 45 | 1011.0 |
| 20260504183103 | 21 | 70 | 8.0 | 0.0 | 0.00 | 0.00 | 0.00 | 40 | 1011.0 |
| 20260504181854 | 20 | 50 | 3.2 | 0.0 | 0.00 | 0.00 | 0.00 | 42 | |
| 20260504180103 | 21 | 50 | 4.8 | 0.0 | 0.00 | 0.00 | 0.00 | 40 | 1011.0 |
| 20260504173103 | 22 | 60 | 3.2 | 0.0 | 0.00 | 0.00 | 0.00 | 37 | 1011.0 |
| 20260504171854 | 21 | 50 | 3.2 | 0.0 | 0.00 | 0.00 | 0.00 | 43 | |
| 20260504170103 | 22 | 30 | 4.8 | 0.0 | 0.00 | 0.00 | 0.00 | 37 | 1011.0 |
| 20260504160212 | 22 | 20 | 8.0 | 0.0 | 0.00 | 0.00 | 0.00 | 35 | 1012.0 |
| 20260504150103 | 22 | 90 | 8.0 | 0.0 | 0.00 | 0.00 | 0.00 | 35 | 1012.0 |
| 20260504130211 | 22 | 30 | 9.7 | 0.0 | 0.00 | 0.00 | 0.00 | 37 | 1013.0 |
| 20260504120104 | 22 | 0 | 3.2 | 0.0 | 0.00 | 0.00 | 0.00 | 37 | 1013.0 |
| 20260504110211 | 20 | 320 | 4.8 | 0.0 | 0.00 | 0.00 | 0.00 | 42 | 1014.0 |
| 20260504100103 | 18 | 310 | 8.0 | 0.0 | 0.00 | 0.00 | 0.00 | 42 | 1014.0 |
| 20260504081852 | 17 | 320 | 8.0 | 0.0 | 0.00 | 0.00 | 0.00 | 48 | |
| 20260504080211 | 16 | 20 | 4.8 | 0.0 | 0.00 | 0.00 | 0.00 | 51 | 1014.0 |
| 20260504070104 | 13 | 320 | 9.7 | 0.0 | 0.00 | 0.00 | 0.00 | 58 | 1014.0 |
| 20260504060211 | 12 | 310 | 8.0 | 0.0 | 0.00 | 0.00 | 0.00 | 62 | 1013.0 |
| 20260504050211 | 11 | 10 | 9.7 | 0.0 | 0.00 | 0.00 | 0.00 | 66 | 1013.0 |
| 20260504043103 | 10 | 0 | 1.6 | 0.0 | 0.00 | 0.00 | 0.00 | 71 | 1013.0 |
| 20260504041854 | 11 | 320 | 3.2 | 0.0 | 0.00 | 0.00 | 0.00 | 62 | |
| 20260504040103 | 11 | 0 | 1.6 | 0.0 | 0.00 | 0.00 | 0.00 | 66 | 1013.0 |
| 20260504033209 | 12 | 0 | 3.2 | 0.0 | 0.00 | 0.00 | 0.00 | 62 | 1013.0 |
| 20260504031851 | 12 | 160 | 8.0 | 0.0 | 0.00 | 0.00 | 0.00 | 58 | |
| 20260504023103 | 12 | 100 | 11.3 | 0.0 | 0.00 | 0.00 | 0.00 | 62 | 1013.0 |
| 20260504021853 | 11 | 60 | 3.2 | 0.0 | 0.00 | 0.00 | 0.00 | 66 | |
| 20260504020212 | 12 | 60 | 4.8 | 0.0 | 0.00 | 0.00 | 0.00 | 62 | 1013.0 |
| 20260504013103 | 12 | 50 | 8.0 | 0.0 | 0.00 | 0.00 | 0.00 | 62 | 1013.0 |
| 20260504011851 | 12 | 40 | 8.0 | 0.0 | 0.00 | 0.00 | 0.00 | 58 | |
| 20260504003103 | 13 | 60 | 11.3 | 0.0 | 0.00 | 0.00 | 0.00 | 54 | 1012.0 |
| 20260504001852 | 13 | 40 | 11.3 | 0.0 | 0.00 | 0.00 | 0.00 | 54 | |
| 20260504000212 | 13 | 40 | 9.7 | 0.0 | 0.00 | 0.00 | 0.00 | 54 | 1013.0 |
| 20260503233102 | 15 | 50 | 11.3 | 0.0 | 0.00 | 0.00 | 0.00 | 51 | 1012.0 |
| 20260503231854 | 15 | 110 | 11.3 | 0.0 | 0.00 | 0.00 | 0.00 | 51 | |
| 20260503230103 | 16 | 110 | 11.3 | 0.0 | 0.00 | 0.00 | 0.00 | 48 | 1012.0 |
| 20260503223103 | 17 | 100 | 9.7 | 0.0 | 0.00 | 0.00 | 0.00 | 45 | 1012.0 |
| 20260503221853 | 17 | 130 | 8.0 | 0.0 | 0.00 | 0.00 | 0.00 | 42 |